Weather History for Naha City, Japan

Change the Weather History Date:

Wednesday, February 6, 2013

  Actual Average Record
Temperature  
Mean Temperature 66 °F -  
Max Temperature 71 °F 67 °F 75 °F (2006)
Min Temperature 62 °F 59 °F 55 °F (2003)
Cooling Degree Days 2    
Growing Degree Days 16 (Base 50)    
Moisture  
Dew Point 60 °F    
Average Humidity 76    
Maximum Humidity 88    
Minimum Humidity 64    
Precipitation  
Precipitation 0.00 in - - ()
Sea Level Pressure  
Sea Level Pressure 30.03 in    
Wind  
Wind Speed 14 mph ()    
Max Wind Speed 23 mph    
Max Gust Speed -    
Visibility 6.2 miles    
Events Rain    
Averages and records for this station are not official NWS values.
T = Trace of Precipitation, MM = Missing Value Source: Averaged Metar Reports

Daily Weather History Graph

Daily Weather History Graph

Search for Another Location

Airport:

Trip Planner

Search our weather history database for the weather conditions in past years. The results will help you decide how hot, cold, wet, or windy it might be!

Date:

Astronomy

Feb. 06, 2013 Rise Set
Actual Time 7:11 AM JST 6:16 PM JST
Civil Twilight 6:47 AM JST 6:39 PM JST
Nautical Twilight 6:19 AM JST 7:07 PM JST
Astronomical Twilight 5:52 AM JST 7:34 PM JST
Moon 3:07 AM JST (2/6) 2:07 PM JST (2/6)
Length of Visible Light 11h 52m
Length of Day
11h 04m
Waning Crescent, 22% of the Moon is Illuminated
Feb 6
Waning Crescent
Feb 10
New
Feb 18
First Quarter
Feb 26
Full
Mar 5
Last Quarter

Hourly Weather History & Observations

Time (JST) Temp. Dew Point Humidity Pressure Visibility Wind Dir Wind Speed Gust Speed Precip Events Conditions
12:00 AM 71.6 °F 68.0 °F 88% 29.98 in 6.2 mi SSW 12.7 mph - N/A   Scattered Clouds
12:30 AM 71.6 °F 68.0 °F 88% 30.01 in 6.2 mi WSW 11.5 mph - N/A   Partly Cloudy
1:00 AM 71.6 °F 66.2 °F 83% 30.01 in 6.2 mi West 11.5 mph - N/A   Mostly Cloudy
1:30 AM 71.6 °F 66.2 °F 83% 29.98 in 6.2 mi West 9.2 mph - N/A   Mostly Cloudy
2:00 AM 71.6 °F 66.2 °F 83% 29.98 in 6.2 mi WSW 8.1 mph - N/A   Mostly Cloudy
2:30 AM 71.6 °F 68.0 °F 88% 29.98 in 6.2 mi West 9.2 mph - N/A   Mostly Cloudy
3:00 AM 71.6 °F 66.2 °F 83% 29.98 in 6.2 mi West 10.4 mph - N/A Rain Light Rain Showers
3:30 AM 71.6 °F 66.2 °F 83% 29.98 in 6.2 mi West 10.4 mph - N/A Rain Light Rain Showers
4:00 AM 71.6 °F 66.2 °F 83% 29.98 in 6.2 mi WNW 9.2 mph - N/A   Mostly Cloudy
4:30 AM 69.8 °F 66.2 °F 88% 29.98 in 6.2 mi NW 16.1 mph - N/A Rain Light Rain Showers
5:00 AM 69.8 °F 66.2 °F 88% 29.98 in 6.2 mi NNW 19.6 mph - N/A   Mostly Cloudy
5:30 AM 69.8 °F 64.4 °F 83% 29.98 in 6.2 mi NNW 19.6 mph - N/A   Mostly Cloudy
6:00 AM 69.8 °F 64.4 °F 83% 29.98 in 6.2 mi NNW 18.4 mph - N/A   Mostly Cloudy
6:30 AM 69.8 °F 64.4 °F 83% 30.01 in 6.2 mi NNW 20.7 mph - N/A   Mostly Cloudy
7:00 AM 69.8 °F 62.6 °F 78% 30.01 in 6.2 mi NNW 20.7 mph - N/A   Mostly Cloudy
7:30 AM 69.8 °F 62.6 °F 78% 30.01 in 6.2 mi NNW 21.9 mph - N/A   Scattered Clouds
8:00 AM 68.0 °F 60.8 °F 78% 30.04 in 6.2 mi NNW 23.0 mph - N/A   Mostly Cloudy
8:30 AM 68.0 °F 60.8 °F 78% 30.04 in 6.2 mi North 19.6 mph - N/A   Mostly Cloudy
9:00 AM 68.0 °F 60.8 °F 78% 30.04 in 6.2 mi North 19.6 mph - N/A   Mostly Cloudy
9:30 AM 68.0 °F 60.8 °F 78% 30.06 in 6.2 mi North 20.7 mph - N/A Rain Light Rain Showers
10:00 AM 68.0 °F 60.8 °F 78% 30.06 in 6.2 mi North 21.9 mph - N/A Rain Light Rain Showers
10:30 AM 68.0 °F 60.8 °F 78% 30.06 in 6.2 mi North 23.0 mph - N/A   Mostly Cloudy
11:00 AM 68.0 °F 60.8 °F 78% 30.06 in 6.2 mi North 20.7 mph - N/A   Mostly Cloudy
11:30 AM 66.2 °F 59.0 °F 78% 30.06 in 6.2 mi North 21.9 mph - N/A Rain Light Rain Showers
12:00 PM 66.2 °F 59.0 °F 78% 30.06 in 6.2 mi North 23.0 mph - N/A Rain Light Rain Showers
12:30 PM 66.2 °F 59.0 °F 78% 30.06 in 6.2 mi North 21.9 mph - N/A   Mostly Cloudy
1:00 PM 66.2 °F 57.2 °F 73% 30.06 in 6.2 mi North 19.6 mph - N/A   Mostly Cloudy
1:30 PM 68.0 °F 57.2 °F 68% 30.04 in 6.2 mi North 17.3 mph - N/A   Mostly Cloudy
2:00 PM 68.0 °F 57.2 °F 68% 30.04 in 6.2 mi North 17.3 mph - N/A   Mostly Cloudy
2:30 PM 68.0 °F 57.2 °F 68% 30.01 in 6.2 mi NNE 13.8 mph - N/A   Mostly Cloudy
3:00 PM 66.2 °F 57.2 °F 73% 30.01 in 6.2 mi North 15.0 mph - N/A   Mostly Cloudy
3:30 PM 66.2 °F 57.2 °F 73% 30.01 in 6.2 mi North 15.0 mph - N/A   Mostly Cloudy
4:00 PM 66.2 °F 57.2 °F 73% 30.01 in 6.2 mi North 15.0 mph - N/A   Mostly Cloudy
4:30 PM 66.2 °F 55.4 °F 68% 30.01 in 6.2 mi North 13.8 mph - N/A   Mostly Cloudy
5:00 PM 66.2 °F 55.4 °F 68% 30.01 in 6.2 mi North 15.0 mph - N/A   Mostly Cloudy
5:30 PM 66.2 °F 55.4 °F 68% 30.01 in 6.2 mi North 16.1 mph - N/A   Mostly Cloudy
6:00 PM 64.4 °F 53.6 °F 68% 30.04 in 6.2 mi North 15.0 mph - N/A   Mostly Cloudy
6:30 PM 64.4 °F 53.6 °F 68% 30.04 in 6.2 mi North 15.0 mph - N/A   Mostly Cloudy
7:00 PM 64.4 °F 53.6 °F 68% 30.04 in 6.2 mi North 16.1 mph - N/A   Mostly Cloudy
7:30 PM 64.4 °F 55.4 °F 73% 30.06 in 6.2 mi North 16.1 mph - N/A   Mostly Cloudy
8:00 PM 64.4 °F 53.6 °F 68% 30.06 in 6.2 mi North 15.0 mph - N/A   Mostly Cloudy
8:30 PM 64.4 °F 53.6 °F 68% 30.06 in 6.2 mi North 13.8 mph - N/A   Mostly Cloudy
9:00 PM 64.4 °F 51.8 °F 64% 30.06 in 6.2 mi North 11.5 mph - N/A   Mostly Cloudy
9:30 PM 64.4 °F 53.6 °F 68% 30.06 in 6.2 mi North 11.5 mph - N/A   Mostly Cloudy
10:00 PM 64.4 °F 53.6 °F 68% 30.06 in 6.2 mi North 11.5 mph - N/A   Mostly Cloudy
10:30 PM 64.4 °F 51.8 °F 64% 30.06 in 6.2 mi North 10.4 mph - N/A   Mostly Cloudy
11:00 PM 62.6 °F 51.8 °F 68% 30.06 in 6.2 mi North 10.4 mph - N/A   Partly Cloudy
11:30 PM 62.6 °F 51.8 °F 68% 30.06 in 6.2 mi NNW 9.2 mph - N/A   Scattered Clouds